Location: Malvern Link
(52.1333°N, 2.3000°W)
Time: 11:37:53
(UTC+00:00)

MOZHAYETS 4 - Pass Details

Date: 30 June 2022
Orbit: 660 x 679 km, 98.2° (Epoch: 10 August)

Event Time Altitude Azimuth Distance (km) Brightness Sun altitude
Exits shadow 02:05:07 - 158° (SSE) 2,735 10.5 -10.8°
Reaches altitude 10° 02:06:39 10° 157° (SSE) 2,111 9.9 -10.7°
Maximum altitude 02:11:15 75° 73° (ENE) 705 7.9 -10.4°
Drops below altitude 10° 02:15:52 10° 348° (NNW) 2,116 11.1 -10.0°
Sets 02:18:06 0° 347° (NNW) 3,031 11.9 -9.9°
